Location: Babice
(50.3480°N, 22.9363°E)
Time: 12:16:00
(UTC+00:00)

Cosmos 1271 Rocket - Pass Details

Date: 14 July 2020
Orbit: 497 x 546 km, 81.2° (Epoch: 07 August)

Event Time Altitude Azimuth Distance (km) Brightness Sun altitude
Rises 01:04:02 0° 355° (N) 2,636 7.1 -10.8°
Reaches altitude 10° 01:06:22 10° 5° (N) 1,737 6.4 -10.6°
Maximum altitude 01:09:49 32° 70° (ENE) 886 4.5 -10.2°
Drops below altitude 10° 01:13:12 10° 135° (SE) 1,706 5.2 -9.9°
Sets 01:15:28 0° 146° (SE) 2,581 6.1 -9.7°
